RH
26 41 44 41 41 45 63 78 81 82 84 76 73 74 74 78 76 68 64 66 65 60 54 44 43 36 44 59 90 73 80 67 58 57 64 73 65 70 53 58 96 100 89 83 74 90 99 98 93 88 95 90 79 76
26 40 45 44 47 52 70 79 82 81 82 74 71 72 77 79 74 68 64 60 59 58 44 43 40 41 39 65 67 81 89 99 87 75 80 86 84 78 72 88 87 99 96 98 95 90 89 100 100 100 99 91 78 78
24 32 39 47 55 67 74 76 78 80 81 77 69 72 76 76 72 68 60 57 54 42 42 39 41 40 44 63 79 93 100 100 100 97 99 96 80 71 78 95 100 100 100 100 99 92 92 100 100 100 100 100 100 90
23 32 37 50 62 66 70 70 78 78 81 78 71 76 76 75 70 56 52 51 43 46 40 36 36 44 64 68 68 81 97 100 100 99 67 36 45 83 100 94 100 100 100 100 100 100 99 98 98 100 98 100 100 100
29 32 40 54 61 67 74 75 78 81 84 74 73 71 72 70 53 46 48 44 42 40 34 36 34 58 58 70 67 96 100 97 61 29 22 36 79 100 100 100 100 100 99 100 100 100 100 100 98 100 100 99 100 98
35 31 41 56 60 60 75 84 84 80 80 79 77 72 71 63 43 43 45 35 32 34 37 41 50 55 73 94 99 68 55 55 39 28 33 100 100 100 100 100 100 100 100 100 100 100 100 100 100 98 99 100 100 100
40 35 35 60 63 59 74 79 80 84 84 82 76 76 71 48 44 46 42 29 34 39 49 57 61 78 67 99 100 91 72 50 31 40 100 100 100 100 100 100 100 100 100 100 100 100 100 100 100 100 100 100 100 100
71 54 39 61 65 68 74 83 82 86 83 80 78 76 67 44 39 43 27 29 39 40 54 68 72 79 85 78 66 46 30 30 45 98 100 100 100 100 99 100 100 100 100 100 100 100 100 100 100 100 100 100 100 100
87 59 62 73 83 86 76 86 93 90 89 89 86 79 54 41 40 29 28 42 45 48 62 68 80 75 74 39 28 27 40 61 98 100 100 100 100 98 100 98 100 100 97 98 100 100 100 100 100 100 100 100 100 100
93 80 90 93 97 97 90 92 99 97 96 91 86 69 51 39 32 32 45 50 58 50 51 71 96 57 29 29 30 42 72 97 100 100 100 100 100 100 100 100 99 100 100 98 100 100 100 100 100 100 100 100 100 100
97 96 97 96 98 96 97 95 98 98 97 96 89 57 38 31 32 42 53 39 35 34 70 73 34 24 28 27 44 86 80 95 100 100 100 100 100 100 100 100 100 100 100 100 100 99 99 98 99 100 100 100 100 100
98 97 97 98 96 96 97 96 97 97 97 96 86 57 30 28 43 41 43 30 19 28 32 21 16 17 25 59 94 100 100 100 100 100 100 100 100 100 100 100 100 100 100 100 100 100 100 100 100 100 100 100 100 100
97 98 98 97 96 97 97 97 97 97 96 94 89 29 25 27 41 34 20 18 17 16 13 12 14 29 83 98 100 100 100 100 100 100 100 100 100 100 100 100 100 100 100 100 100 100 100 100 100 100 100 100 100 100
97 98 98 97 97 96 97 97 97 97 96 94 56 22 17 23 20 14 14 10 11 10 12 14 22 46 89 100 100 100 100 100 100 99 100 99 97 96 96 99 100 100 100 100 100 100 100 100 100 100 100 100 100 100
98 98 96 97 96 98 97 96 97 96 96 87 37 18 18 12 8 8 7 9 10 11 12 16 40 80 97 100 99 100 99 95 95 96 95 93 90 87 88 96 100 100 100 100 100 100 100 100 100 100 100 100 99 100
97 96 96 96 98 98 97 97 96 96 95 66 17 12 8 8 7 7 8 9 9 12 15 22 73 99 98 90 85 88 87 88 92 89 93 94 90 91 89 88 95 100 100 100 100 100 100 100 100 100 100 100 100 100
97 97 98 97 98 96 96 96 96 95 93 48 12 6 6 6 6 7 8 8 10 14 18 27 36 55 59 84 84 74 69 75 80 84 91 99 96 92 91 88 87 88 93 99 100 100 100 100 100 100 100 100 100 100
97 96 97 98 97 96 96 96 96 95 82 29 5 6 5 6 6 8 9 10 12 16 21 28 42 50 48 51 58 66 72 75 82 86 90 97 95 95 96 95 96 95 90 87 89 95 98 100 100 100 98 100 100 96
97 98 97 97 96 96 96 95 95 92 41 6 5 5 6 7 8 9 10 12 15 21 27 41 47 57 67 74 74 73 76 77 76 77 85 96 94 92 96 96 97 97 97 96 93 87 81 83 87 91 94 87 86 78
97 97 96 96 96 96 96 95 95 62 4 5 6 6 7 8 10 11 12 15 18 22 33 40 51 57 59 66 70 74 80 85 88 83 85 93 94 95 100 98 96 96 96 96 96 98 87 87 80 72 70 67 67 69
97 97 97 96 96 96 96 95 69 6 5 6 6 7 8 9 11 13 14 15 16 22 33 40 42 46 51 59 64 67 76 88 95 95 92 87 92 94 92 93 92 95 94 95 97 100 99 97 92 80 74 72 74 77
97 97 96 96 96 96 95 83 18 9 7 7 8 9 10 11 13 15 15 16 18 25 29 31 32 36 43 49 58 64 74 86 93 91 94 99 100 100 100 98 98 100 100 99 98 100 100 100 100 89 87 89 86 93
97 97 96 96 95 95 57 29 5 6 7 8 8 10 12 12 14 16 18 17 20 22 25 26 28 32 35 44 54 64 79 85 87 88 94 100 100 99 98 99 96 97 100 98 97 98 100 100 99 94 97 94 92 97
96 96 96 95 95 62 42 7 6 7 8 9 9 10 13 14 16 17 18 18 19 18 19 22 23 29 38 44 47 55 65 75 86 88 92 99 100 100 100 100 98 96 96 97 100 100 98 99 98 96 94 96 96 95
97 95 95 96 83 55 7 6 7 8 10 11 11 12 14 16 16 18 19 18 17 16 16 17 21 27 33 40 45 51 55 60 70 78 87 93 98 99 99 97 93 88 92 93 99 97 97 97 96 94 94 97 99 93
95 95 93 95 72 9 6 8 9 10 11 13 15 16 16 18 19 21 20 17 16 14 14 15 18 26 36 41 45 50 55 58 62 68 77 87 95 99 100 100 100 99 96 96 94 97 99 98 96 93 93 92 95 96
95 95 92 76 36 6 6 8 10 12 14 16 17 18 20 20 23 24 23 21 18 16 14 14 16 22 34 41 46 50 56 61 64 69 75 80 84 87 90 94 98 99 97 99 100 98 99 100 98 96 94 93 87 89
96 95 86 38 5 6 7 9 12 14 16 17 19 22 25 26 28 32 31 31 27 23 18 14 14 16 25 36 44 49 55 60 66 70 74 76 82 88 94 95 94 95 95 97 100 100 100 100 100 97 90 85 81 85
94 53 9 6 6 8 9 10 12 15 18 22 23 26 30 34 35 36 37 37 38 34 29 24 17 15 17 23 34 44 52 58 63 68 78 87 98 100 99 98 98 99 99 93 89 92 94 96 98 96 91 85 81 87
72 12 6 7 8 9 11 13 16 19 22 25 26 29 31 33 36 38 40 41 42 43 42 39 31 23 18 17 21 29 40 51 59 66 74 82 84 86 88 91 90 89 87 86 85 80 75 73 73 74 73 74 80 90
19 6 7 8 9 11 14 17 20 22 25 27 28 30 32 34 35 38 41 43 45 45 47 49 48 44 36 27 21 20 22 29 42 54 63 69 74 74 78 77 76 76 78 81 81 78 71 68 68 69 72 79 88 91
6 7 8 9 12 14 17 20 23 25 27 29 30 31 32 34 36 37 40 43 44 47 49 50 52 55 56 52 43 33 26 23 23 26 34 50 62 68 73 75 76 74 73 74 76 77 78 78 79 80 83 86 87 88
7 8 9 10 13 17 19 22 26 28 29 30 31 31 32 33 35 38 41 43 45 47 50 53 55 57 59 62 63 63 60 50 39 31 27 26 28 34 48 63 73 77 77 74 72 71 73 74 75 76 77 78 80 81
Wind_Speed
34 34 33 35 37 38 41 41 35 34 36 37 39 40 42 40 39 37 38 36 35 38 27 24 24 18 22 17 18 18 17 8 9 10 6 8 6 13 9 20 17 11 9 6 8 3 2 14 11 6 7 11 13 14
33 33 34 37 38 39 41 41 36 35 36 36 38 41 42 39 38 38 38 38 36 32 24 27 15 22 21 17 18 18 16 14 8 8 9 7 17 14 20 11 16 8 7 7 4 6 19 16 11 12 12 13 12 14
33 34 35 37 38 40 42 40 37 35 35 36 39 42 40 38 37 38 39 37 35 30 27 15 20 22 21 19 17 14 18 15 14 13 15 15 17 16 17 13 15 11 8 6 9 12 13 13 14 15 17 18 15 15
33 34 35 37 38 41 41 41 36 36 35 36 40 41 40 37 38 39 38 33 29 29 21 22 23 19 12 14 15 14 16 16 20 17 23 26 25 19 15 18 18 14 11 8 9 12 12 14 16 14 17 18 18 17
35 36 37 37 38 42 40 38 37 36 34 37 40 41 40 38 40 39 36 31 29 25 24 20 16 10 15 13 13 9 7 13 20 26 28 28 23 19 19 15 3 8 9 8 7 12 15 16 18 18 16 16 17 16
36 38 39 38 40 43 41 37 36 37 36 37 39 41 38 39 39 38 35 32 30 24 21 14 11 15 10 12 9 9 18 26 26 26 28 22 23 17 9 5 2 5 8 10 13 13 15 16 14 15 15 15 15 16
38 39 40 39 40 42 41 37 38 37 35 37 40 40 38 39 38 31 34 29 23 18 17 10 7 5 16 16 15 22 31 38 33 29 19 21 19 12 7 3 7 6 7 10 12 12 12 14 14 13 14 14 14 14
39 41 41 40 40 40 40 42 38 35 35 39 40 41 39 40 34 34 31 24 15 13 10 7 8 16 21 21 31 42 38 33 29 20 17 13 7 3 3 3 6 7 7 8 10 11 12 12 12 12 12 12 12 12
41 40 40 40 39 41 40 44 37 34 36 38 39 39 40 36 35 32 26 16 14 11 8 9 19 18 15 43 42 36 27 22 13 12 10 7 2 4 8 8 8 8 9 8 9 10 11 12 13 13 12 12 12 12
42 40 37 39 40 40 38 46 37 35 36 36 37 37 36 37 33 25 14 10 9 12 16 12 16 36 45 42 36 26 10 7 6 3 2 2 9 5 7 10 12 11 11 12 11 9 10 10 11 12 12 12 11 11
44 41 36 40 36 40 38 44 36 36 35 33 33 34 35 30 21 10 6 7 8 13 10 17 38 44 40 36 26 7 8 6 3 2 3 3 4 5 8 11 12 12 12 13 14 14 13 12 11 10 11 12 12 12
43 36 37 35 37 39 39 39 37 35 34 29 28 31 25 11 5 5 6 9 11 8 22 37 39 37 32 19 7 7 5 4 2 3 3 4 5 9 11 12 13 12 12 12 13 13 13 13 13 12 12 12 12 12
36 34 32 40 39 40 40 38 33 32 30 26 25 14 7 4 4 4 10 18 20 27 35 36 34 29 12 9 6 5 4 3 7 4 2 2 10 13 13 13 12 14 14 14 14 14 15 14 13 13 12 13 13 12
33 33 39 38 39 41 39 34 31 29 24 20 11 9 5 4 5 18 24 28 29 30 31 29 27 15 11 4 5 5 6 6 2 0 1 11 17 16 16 16 16 14 14 15 14 14 14 14 14 14 13 13 13 12
35 38 45 36 40 40 35 30 28 26 18 8 6 5 5 14 21 23 24 25 26 26 25 24 18 10 5 4 3 5 5 3 2 3 16 20 20 20 18 17 16 16 14 13 13 13 12 12 13 13 12 12 13 12
38 44 41 35 40 35 31 28 25 20 13 4 5 10 16 17 19 20 19 20 22 22 22 17 7 5 4 5 3 4 8 4 9 24 25 25 24 23 23 22 20 19 17 15 13 13 12 11 10 11 11 10 11 11
43 41 34 35 37 31 28 25 21 13 2 4 10 13 14 16 16 17 19 21 22 21 20 9 6 3 8 5 5 6 13 24 30 30 30 31 32 30 30 29 27 25 23 21 18 16 15 13 12 11 11 9 10 11
37 34 36 37 31 27 25 20 13 2 4 9 10 12 13 14 15 18 20 22 24 23 21 14 3 3 7 9 15 22 24 26 27 28 27 26 26 25 25 25 24 24 24 24 24 22 20 19 16 14 15 11 11 12
34 36 34 30 27 24 20 13 5 1 6 8 8 10 10 12 14 19 20 23 25 22 19 12 7 13 16 20 23 22 24 25 26 24 23 23 25 24 22 22 21 22 22 21 20 21 22 22 22 20 19 17 14 14
35 34 31 28 24 21 16 5 2 2 6 6 6 6 8 11 15 19 19 21 22 20 17 18 18 20 22 22 25 26 25 26 27 26 24 22 22 20 19 20 19 18 17 18 17 17 18 18 21 23 22 21 17 16
31 32 30 25 21 19 9 3 3 5 4 1 4 5 8 10 14 18 18 21 24 25 26 24 24 25 26 27 28 28 27 26 26 25 26 25 23 20 18 16 15 15 15 15 14 14 16 16 17 20 20 21 20 18
31 31 27 24 20 10 5 5 6 4 3 1 3 5 8 8 13 18 17 23 25 26 26 27 28 27 27 27 27 28 26 25 25 24 23 22 21 19 18 18 15 14 15 15 14 13 14 15 16 18 15 15 17 18
28 27 25 21 11 7 8 9 7 5 4 2 4 4 7 6 10 16 19 24 26 26 27 27 27 28 28 28 28 28 26 24 23 23 20 18 19 19 17 16 14 12 12 13 13 13 13 14 14 14 13 15 15 16
27 27 22 12 9 8 11 10 9 8 5 4 4 3 7 9 9 16 21 24 25 26 27 27 26 24 24 25 26 25 24 23 22 22 19 17 16 17 16 15 14 12 11 10 11 13 14 14 15 14 13 13 14 13
27 16 10 11 11 14 14 13 12 10 9 7 5 3 4 9 7 16 20 22 24 26 26 26 25 24 24 24 25 25 24 22 21 20 19 17 15 15 15 15 15 13 12 11 11 14 14 14 14 14 13 12 13 12
16 13 12 15 18 16 14 17 13 12 10 7 6 4 3 6 9 10 18 21 23 25 26 26 24 23 24 26 26 25 23 22 22 20 18 16 14 13 12 12 13 16 15 14 13 12 11 12 12 11 11 11 11 10
12 9 20 21 18 17 20 18 16 13 10 6 6 5 6 4 7 11 17 21 24 26 27 28 26 25 25 25 26 25 24 22 21 20 19 18 16 15 15 14 13 14 12 11 11 10 9 9 9 8 7 9 10 9
12 24 23 20 22 22 21 20 18 13 10 9 8 7 5 3 8 14 18 21 23 26 28 29 28 27 25 25 25 25 25 24 23 22 22 21 20 20 19 18 17 16 16 15 13 12 10 9 7 6 5 6 6 4
26 27 27 28 26 24 20 17 16 15 13 12 12 12 11 12 13 15 17 20 22 25 27 29 30 29 27 25 25 25 26 26 26 26 26 24 22 20 19 18 17 16 15 14 13 12 11 9 7 6 5 3 1 3
31 32 33 29 26 24 21 18 16 15 14 13 11 12 11 12 13 15 17 18 20 22 25 27 28 30 30 29 27 25 25 24 24 24 23 22 20 19 18 18 17 16 15 15 14 13 12 10 9 7 5 4 2 2
36 34 31 28 26 24 21 19 17 15 13 12 11 11 11 11 13 14 15 17 18 20 22 24 26 27 29 30 30 29 27 26 24 23 23 23 22 22 21 20 20 20 19 18 16 15 13 12 10 9 7 5 4 3
38 35 32 31 29 25 22 19 16 14 13 11 10 10 10 10 11 13 14 15 16 18 20 21 23 24 26 27 28 29 30 29 28 27 25 24 22 23 24 24 24 23 21 20 18 17 16 14 12 10 9 7 6 4
37 33 30 29 28 25 22 19 16 14 11 10 9 8 8 8 9 10 12 13 14 16 17 18 20 21 23 24 25 27 28 29 29 29 29 28 27 26 25 23 23 22 22 21 19 18 17 15 14 12 10 9 7 6
Wind_Direction
334 336 339 342 341 340 340 341 338 337 340 340 340 338 339 340 338 336 335 334 329 327 335 325 320 316 317 315 305 305 316 313 322 349 359 354 311 332 306 319 309 321 331 0 345 316 312 336 331 352 337 328 330 337
331 333 336 339 340 339 339 338 335 336 338 338 337 336 338 337 335 334 333 332 328 327 327 321 316 316 311 299 298 297 299 313 294 319 321 320 315 309 308 300 301 287 283 299 292 306 304 311 308 316 315 327 330 331
328 329 333 338 338 338 337 336 335 335 334 335 336 336 335 335 333 331 330 329 326 326 330 321 318 314 305 300 294 284 288 300 293 302 306 315 300 299 294 287 274 277 272 269 288 288 293 291 293 306 314 320 325 325
323 326 329 333 336 337 334 336 338 335 333 334 336 336 336 333 331 330 329 328 324 324 325 322 320 315 305 304 296 291 278 285 281 295 312 310 302 293 271 272 262 281 275 277 278 277 282 279 292 300 306 310 316 323
319 322 325 328 332 335 332 332 332 332 332 333 335 335 334 331 330 329 327 326 323 322 314 314 313 312 303 306 309 301 314 289 312 313 308 304 290 270 264 253 236 298 297 298 267 282 289 284 288 294 300 300 301 306
314 318 320 322 329 333 332 328 326 329 329 330 330 331 332 330 330 328 327 325 323 320 318 317 295 311 305 304 285 300 320 322 321 308 299 283 270 264 248 181 307 296 300 295 290 291 292 293 291 291 296 300 302 305
310 313 317 317 324 332 332 326 326 327 325 327 327 330 330 330 330 326 324 321 318 317 314 305 301 306 309 292 285 302 312 319 317 311 281 267 264 251 218 170 320 312 302 295 292 294 292 292 292 290 292 295 300 303
304 309 313 313 321 331 333 327 326 326 325 326 326 329 329 329 327 324 325 324 321 317 314 291 291 310 307 303 312 314 317 314 305 288 268 260 251 238 92 2 330 317 301 291 292 299 302 302 301 299 299 298 301 303
298 304 309 311 319 322 331 328 321 321 323 324 326 326 327 328 324 325 325 322 323 313 300 283 306 320 308 319 324 329 320 305 294 259 261 251 162 46 344 328 317 318 320 311 311 304 300 299 300 299 298 298 299 300
291 298 302 303 311 318 324 327 315 317 317 321 325 327 326 322 320 319 312 320 313 309 299 298 311 325 324 327 331 329 301 287 290 287 239 136 84 44 339 326 318 314 311 310 310 297 285 284 289 294 295 297 299 299
286 291 296 306 310 316 316 325 310 313 315 319 324 324 319 316 315 312 308 327 317 305 302 310 320 322 324 329 330 316 299 292 308 249 280 141 91 352 337 327 318 315 314 311 311 313 316 315 311 305 302 300 300 302
282 292 297 301 309 313 310 317 307 307 311 319 322 319 310 310 299 295 313 333 323 304 306 315 324 328 329 331 327 315 299 305 291 267 235 134 346 337 327 323 318 314 311 308 305 305 306 307 309 309 307 304 302 302
285 288 295 298 305 306 306 305 303 306 310 318 329 304 302 296 288 286 326 316 320 315 320 327 331 330 335 340 300 313 290 307 300 249 146 162 337 329 321 318 316 315 314 310 305 302 301 303 305 305 304 302 300 298
281 283 285 296 302 306 299 299 300 304 305 328 318 285 279 298 307 318 322 323 326 328 329 328 325 327 329 317 291 279 279 300 257 209 257 319 320 320 316 314 314 311 307 305 305 300 295 293 295 298 300 298 295 293
274 283 292 292 298 289 293 295 297 299 316 337 288 272 269 309 317 324 330 333 333 332 335 334 325 325 326 302 286 288 291 309 300 268 317 316 311 309 308 307 305 304 303 302 301 301 301 299 294 290 290 290 292 292
272 278 286 294 293 282 288 289 294 296 321 290 244 292 312 320 329 336 337 338 340 345 346 346 325 317 299 303 293 280 305 283 302 309 308 305 302 302 301 301 301 299 297 296 298 299 298 298 297 294 291 286 284 288
276 274 281 293 283 279 281 284 287 305 293 250 290 312 322 330 339 345 348 350 354 357 3 356 325 315 308 307 294 286 296 301 305 303 301 300 299 297 294 293 291 289 288 288 288 287 289 293 294 295 296 299 295 293
268 275 277 273 268 273 274 275 280 271 262 280 304 320 333 344 355 356 354 359 1 3 1 355 332 313 313 294 302 308 307 305 304 304 304 302 300 298 296 294 292 290 286 282 281 279 279 280 281 283 288 294 297 299
267 271 267 260 261 267 265 265 271 258 270 282 311 334 348 360 4 3 4 4 2 2 2 6 353 324 330 324 322 322 317 315 314 313 312 309 304 304 301 296 294 292 290 288 283 277 273 273 273 273 276 281 285 288
263 259 249 251 255 255 248 225 218 250 261 301 324 352 4 12 11 10 9 6 1 359 2 358 350 343 340 334 328 328 328 323 321 319 319 314 310 308 302 296 293 289 286 283 282 280 276 273 269 267 267 269 271 274
255 243 242 243 244 240 231 160 172 244 250 309 353 18 17 17 14 10 8 3 4 6 1 354 352 349 344 339 335 334 333 328 325 322 320 321 320 319 312 308 304 301 298 294 290 283 278 274 271 269 265 263 262 261
238 232 233 231 227 210 174 158 211 217 173 66 47 37 20 16 12 10 6 6 6 359 358 355 351 349 345 341 338 335 335 332 328 326 324 322 318 314 311 310 309 301 295 293 291 288 280 276 273 271 274 268 256 249
226 225 222 216 191 173 162 166 183 170 154 114 96 62 18 10 14 8 9 8 4 360 358 355 352 350 348 344 340 340 340 337 333 331 333 325 319 317 321 320 321 313 300 294 293 290 284 279 274 277 273 267 259 249
213 209 201 191 162 160 164 185 170 150 126 120 135 97 26 21 20 13 9 7 4 4 360 357 357 357 351 346 346 347 347 345 341 340 344 336 328 324 325 323 322 319 312 301 295 289 286 283 279 275 271 268 266 257
195 193 181 159 150 164 172 165 158 145 127 116 117 116 37 18 14 13 7 6 8 7 6 5 3 358 357 360 360 359 357 354 353 352 352 349 344 339 334 330 326 324 319 314 302 295 295 292 285 277 271 266 267 262
191 184 163 158 158 167 157 155 150 144 138 122 87 75 76 36 24 1 6 13 14 14 13 12 10 7 5 7 9 10 7 3 3 5 6 4 1 357 351 345 335 332 338 334 327 319 308 297 289 281 274 264 260 259
165 153 159 152 167 173 154 147 142 136 125 115 113 88 60 44 18 15 24 22 21 21 20 19 17 14 13 13 14 15 15 15 15 15 17 18 17 20 20 16 8 1 356 350 345 339 333 321 310 300 281 260 253 248
160 149 151 156 160 153 146 141 136 129 120 109 99 91 84 91 50 39 34 29 27 26 25 25 25 22 19 18 16 17 20 21 21 22 22 24 24 21 17 13 12 9 7 6 2 358 357 356 346 326 302 283 286 269
142 143 156 155 149 146 144 140 130 125 119 110 99 94 89 69 53 44 37 33 30 28 28 27 27 28 28 24 22 21 21 22 22 23 24 22 16 12 11 12 10 10 7 4 6 7 8 10 9 3 357 341 298 208
150 159 155 154 149 144 137 130 127 121 115 108 98 89 78 65 53 44 39 34 32 30 30 31 31 30 30 30 29 28 26 26 26 27 27 26 24 22 23 21 19 19 18 18 16 15 16 18 19 18 17 22 54 141
160 159 155 150 144 139 136 133 130 125 118 110 97 87 75 63 54 47 41 35 33 31 31 31 32 32 33 33 33 33 32 32 32 31 31 30 30 31 33 31 31 29 28 27 27 28 29 30 32 34 42 53 68 93
160 158 156 151 145 143 140 138 134 128 120 112 102 87 73 61 54 46 42 38 35 33 32 32 32 33 34 35 36 36 36 35 34 34 34 32 29 31 33 34 34 34 32 31 32 35 39 41 45 48 53 58 61 56
159 158 157 149 146 146 146 144 140 135 128 116 99 87 74 61 53 43 40 39 36 34 33 32 32 33 33 34 35 35 36 37 38 37 36 36 35 35 34 32 31 32 34 35 35 37 39 41 44 47 48 46 40 31